Time,TemperatureF,DewpointF,PressureIn,WindDirection,WindDirectionDegrees,WindSpeedMPH,WindSpeedGustMPH,Humidity,HourlyPrecipIn,Conditions,Clouds,dailyrainin,SolarRadiationWatts/m^2,SoftwareType,DateUTC
2013-02-07 00:02:00,37.0,17.0,-100.00,WSW,242,21.0,27.0,44,0.00,,,0.00,0.000000,,2013-02-07 05:02:00,
2013-02-07 00:22:00,36.0,16.0,-100.00,WSW,240,22.0,26.0,44,0.00,,,0.00,0.000000,,2013-02-07 05:22:00,
2013-02-07 00:32:00,36.0,16.0,-100.00,WSW,240,22.0,26.0,44,0.00,,,0.00,0.000000,,2013-02-07 05:32:00,
2013-02-07 00:43:00,36.0,16.0,-100.00,WSW,240,22.0,26.0,44,0.00,,,0.00,0.000000,,2013-02-07 05:43:00,
2013-02-07 00:52:00,36.0,16.0,-100.00,WSW,240,22.0,26.0,44,0.00,,,0.00,0.000000,,2013-02-07 05:52:00,
2013-02-07 01:02:00,36.0,16.0,-100.00,WSW,240,22.0,26.0,44,0.00,,,0.00,0.000000,,2013-02-07 06:02:00,
2013-02-07 01:32:00,36.0,17.0,-100.00,SW,235,22.0,27.0,46,0.00,,,0.00,0.000000,,2013-02-07 06:32:00,
2013-02-07 01:43:00,36.0,17.0,-100.00,SW,235,22.0,27.0,46,0.00,,,0.00,0.000000,,2013-02-07 06:43:00,
2013-02-07 01:52:00,36.0,17.0,-100.00,SW,235,22.0,27.0,46,0.00,,,0.00,0.000000,,2013-02-07 06:52:00,
2013-02-07 02:02:00,36.0,17.0,-100.00,SW,235,22.0,27.0,46,0.00,,,0.00,0.000000,,2013-02-07 07:02:00,
2013-02-07 02:32:00,35.0,16.0,-100.00,WSW,237,24.0,29.0,45,0.00,,,0.00,0.000000,,2013-02-07 07:32:00,
2013-02-07 02:42:00,35.0,16.0,-100.00,WSW,237,24.0,29.0,45,0.00,,,0.00,0.000000,,2013-02-07 07:42:00,
2013-02-07 02:52:00,35.0,16.0,-100.00,WSW,237,24.0,29.0,45,0.00,,,0.00,0.000000,,2013-02-07 07:52:00,
2013-02-07 03:02:00,35.0,16.0,-100.00,WSW,237,24.0,29.0,45,0.00,,,0.00,0.000000,,2013-02-07 08:02:00,
2013-02-07 03:32:00,34.0,17.0,-100.00,WSW,237,24.0,29.0,49,0.00,,,0.00,0.000000,,2013-02-07 08:32:00,
2013-02-07 03:42:00,34.0,17.0,-100.00,WSW,237,24.0,29.0,49,0.00,,,0.00,0.000000,,2013-02-07 08:42:00,
2013-02-07 03:52:00,34.0,17.0,-100.00,WSW,237,24.0,29.0,49,0.00,,,0.00,0.000000,,2013-02-07 08:52:00,
2013-02-07 04:02:00,34.0,17.0,-100.00,WSW,237,24.0,29.0,49,0.00,,,0.00,0.000000,,2013-02-07 09:02:00,
2013-02-07 04:32:00,33.0,18.0,-100.00,WSW,246,22.0,29.0,54,0.00,,,0.00,0.000000,,2013-02-07 09:32:00,
2013-02-07 04:42:00,33.0,18.0,-100.00,WSW,246,22.0,29.0,54,0.00,,,0.00,0.000000,,2013-02-07 09:42:00,
2013-02-07 04:52:00,33.0,18.0,-100.00,WSW,246,22.0,29.0,54,0.00,,,0.00,0.000000,,2013-02-07 09:52:00,
2013-02-07 05:02:00,33.0,18.0,-100.00,WSW,246,22.0,29.0,54,0.00,,,0.00,0.000000,,2013-02-07 10:02:00,
2013-02-07 05:22:00,33.0,19.0,-100.00,SW,228,19.0,26.0,56,0.00,,,0.00,0.000000,,2013-02-07 10:22:00,
2013-02-07 05:32:00,33.0,19.0,-100.00,SW,228,19.0,26.0,56,0.00,,,0.00,0.000000,,2013-02-07 10:32:00,
2013-02-07 05:42:00,33.0,19.0,-100.00,SW,228,19.0,26.0,56,0.00,,,0.00,0.000000,,2013-02-07 10:42:00,
2013-02-07 05:52:00,33.0,19.0,-100.00,SW,228,19.0,26.0,56,0.00,,,0.00,0.000000,,2013-02-07 10:52:00,
2013-02-07 06:01:00,33.0,19.0,-100.00,SW,228,19.0,26.0,56,0.00,,,0.00,0.000000,,2013-02-07 11:01:00,
2013-02-07 06:23:00,33.0,19.0,-100.00,SW,235,21.0,27.0,56,0.00,,,0.00,0.000000,,2013-02-07 11:23:00,
2013-02-07 06:32:00,33.0,19.0,-100.00,SW,235,21.0,27.0,56,0.00,,,0.00,0.000000,,2013-02-07 11:32:00,
2013-02-07 06:44:00,33.0,19.0,-100.00,SW,235,21.0,27.0,56,0.00,,,0.00,0.000000,,2013-02-07 11:44:00,
2013-02-07 06:53:00,33.0,19.0,-100.00,SW,235,21.0,27.0,56,0.00,,,0.00,0.000000,,2013-02-07 11:53:00,
2013-02-07 07:02:00,33.0,19.0,-100.00,SW,235,21.0,27.0,56,0.00,,,0.00,0.000000,,2013-02-07 12:02:00,
2013-02-07 07:03:00,34.0,22.0,-100.00,WSW,244,18.0,26.0,61,0.00,,,0.00,0.000000,,2013-02-07 12:03:00,
2013-02-07 07:33:00,34.0,22.0,-100.00,WSW,244,18.0,26.0,61,0.00,,,0.00,0.000000,,2013-02-07 12:33:00,
2013-02-07 07:42:00,34.0,22.0,-100.00,WSW,244,18.0,26.0,61,0.00,,,0.00,0.000000,,2013-02-07 12:42:00,
2013-02-07 07:53:00,34.0,22.0,-100.00,WSW,244,18.0,26.0,61,0.00,,,0.00,0.000000,,2013-02-07 12:53:00,
2013-02-07 08:22:00,36.0,24.0,-100.00,WSW,243,15.0,23.0,62,0.00,,,0.00,6.000000,,2013-02-07 13:22:00,
2013-02-07 08:32:00,36.0,24.0,-100.00,WSW,243,15.0,23.0,62,0.00,,,0.00,6.000000,,2013-02-07 13:32:00,
2013-02-07 08:42:00,36.0,24.0,-100.00,WSW,243,15.0,23.0,62,0.00,,,0.00,6.000000,,2013-02-07 13:42:00,
2013-02-07 08:52:00,36.0,24.0,-100.00,WSW,243,15.0,23.0,62,0.00,,,0.00,6.000000,,2013-02-07 13:52:00,
2013-02-07 09:01:00,36.0,24.0,-100.00,WSW,243,15.0,23.0,62,0.00,,,0.00,6.000000,,2013-02-07 14:01:00,
2013-02-07 09:32:00,35.0,25.0,-100.00,WSW,244,14.0,20.0,67,0.00,,,0.00,48.000000,,2013-02-07 14:32:00,
2013-02-07 09:42:00,35.0,25.0,-100.00,WSW,244,14.0,20.0,67,0.00,,,0.00,48.000000,,2013-02-07 14:42:00,
2013-02-07 09:52:00,35.0,25.0,-100.00,WSW,244,14.0,20.0,67,0.00,,,0.00,48.000000,,2013-02-07 14:52:00,
2013-02-07 10:02:00,35.0,25.0,-100.00,WSW,244,14.0,20.0,67,0.00,,,0.00,48.000000,,2013-02-07 15:02:00,
2013-02-07 10:22:00,38.0,26.0,-100.00,West,271,16.0,24.0,62,0.00,,,0.00,93.000000,,2013-02-07 15:22:00,
2013-02-07 10:32:00,38.0,26.0,-100.00,West,271,16.0,24.0,62,0.00,,,0.00,93.000000,,2013-02-07 15:32:00,
2013-02-07 10:42:00,38.0,26.0,-100.00,West,271,16.0,24.0,62,0.00,,,0.00,93.000000,,2013-02-07 15:42:00,
2013-02-07 10:52:00,38.0,26.0,-100.00,West,271,16.0,24.0,62,0.00,,,0.00,93.000000,,2013-02-07 15:52:00,
2013-02-07 11:01:00,38.0,26.0,-100.00,West,271,16.0,24.0,62,0.00,,,0.00,93.000000,,2013-02-07 16:01:00,
2013-02-07 11:32:00,40.0,28.0,-100.00,WSW,249,15.0,23.0,61,0.00,,,0.00,105.000000,,2013-02-07 16:32:00,
2013-02-07 11:42:00,40.0,28.0,-100.00,WSW,249,15.0,23.0,61,0.00,,,0.00,105.000000,,2013-02-07 16:42:00,
2013-02-07 11:52:00,40.0,28.0,-100.00,WSW,249,15.0,23.0,61,0.00,,,0.00,105.000000,,2013-02-07 16:52:00,
2013-02-07 12:01:00,40.0,28.0,-100.00,WSW,249,15.0,23.0,61,0.00,,,0.00,105.000000,,2013-02-07 17:01:00,
2013-02-07 12:32:00,39.0,27.0,-100.00,WSW,245,15.0,20.0,62,0.00,,,0.00,126.000000,,2013-02-07 17:32:00,
2013-02-07 12:43:00,39.0,27.0,-100.00,WSW,245,15.0,20.0,62,0.00,,,0.00,126.000000,,2013-02-07 17:43:00,
2013-02-07 12:52:00,39.0,27.0,-100.00,WSW,245,15.0,20.0,62,0.00,,,0.00,126.000000,,2013-02-07 17:52:00,
2013-02-07 13:02:00,39.0,27.0,-100.00,WSW,245,15.0,20.0,62,0.00,,,0.00,126.000000,,2013-02-07 18:02:00,
2013-02-07 13:23:00,35.0,30.0,-100.00,WSW,237,16.0,22.0,81,0.00,,,0.00,107.000000,,2013-02-07 18:23:00,
2013-02-07 13:32:00,35.0,30.0,-100.00,WSW,237,16.0,22.0,81,0.00,,,0.00,107.000000,,2013-02-07 18:32:00,
2013-02-07 13:42:00,35.0,30.0,-100.00,WSW,237,16.0,22.0,81,0.00,,,0.00,107.000000,,2013-02-07 18:42:00,
2013-02-07 13:52:00,35.0,30.0,-100.00,WSW,237,16.0,22.0,81,0.00,,,0.00,107.000000,,2013-02-07 18:52:00,
2013-02-07 14:01:00,35.0,30.0,-100.00,WSW,237,16.0,22.0,81,0.00,,,0.00,107.000000,,2013-02-07 19:01:00,
2013-02-07 14:32:00,33.0,32.0,-100.00,WSW,238,20.0,26.0,97,0.01,,,0.01,68.000000,,2013-02-07 19:32:00,
2013-02-07 14:42:00,33.0,32.0,-100.00,WSW,238,20.0,26.0,97,0.01,,,0.01,68.000000,,2013-02-07 19:42:00,
2013-02-07 14:52:00,33.0,32.0,-100.00,WSW,238,20.0,26.0,97,0.01,,,0.01,68.000000,,2013-02-07 19:52:00,
2013-02-07 15:01:00,33.0,32.0,-100.00,WSW,238,20.0,26.0,97,0.01,,,0.01,68.000000,,2013-02-07 20:01:00,
2013-02-07 15:22:00,32.0,32.0,-100.00,SW,235,23.0,31.0,98,0.01,,,0.02,53.000000,,2013-02-07 20:22:00,
2013-02-07 15:32:00,32.0,32.0,-100.00,SW,235,23.0,31.0,98,0.01,,,0.02,53.000000,,2013-02-07 20:32:00,
2013-02-07 15:42:00,32.0,32.0,-100.00,SW,235,23.0,31.0,98,0.01,,,0.02,53.000000,,2013-02-07 20:42:00,
2013-02-07 15:52:00,32.0,32.0,-100.00,SW,235,23.0,31.0,98,0.01,,,0.02,53.000000,,2013-02-07 20:52:00,
2013-02-07 16:02:00,32.0,32.0,-100.00,SW,235,23.0,31.0,98,0.01,,,0.02,53.000000,,2013-02-07 21:02:00,
2013-02-07 16:32:00,31.0,31.0,-100.00,SW,227,23.0,32.0,99,0.00,,,0.02,31.000000,,2013-02-07 21:32:00,
2013-02-07 16:42:00,31.0,31.0,-100.00,SW,227,23.0,32.0,99,0.00,,,0.02,31.000000,,2013-02-07 21:42:00,
2013-02-07 16:52:00,31.0,31.0,-100.00,SW,227,23.0,32.0,99,0.00,,,0.02,31.000000,,2013-02-07 21:52:00,
2013-02-07 17:02:00,31.0,31.0,-100.00,SW,227,23.0,32.0,99,0.00,,,0.02,31.000000,,2013-02-07 22:02:00,
2013-02-07 17:32:00,31.0,31.0,-100.00,SW,224,22.0,28.0,99,0.00,,,0.02,20.000000,,2013-02-07 22:32:00,
2013-02-07 17:42:00,31.0,31.0,-100.00,SW,224,22.0,28.0,99,0.00,,,0.02,20.000000,,2013-02-07 22:42:00,
2013-02-07 17:52:00,31.0,31.0,-100.00,SW,224,22.0,28.0,99,0.00,,,0.02,20.000000,,2013-02-07 22:52:00,
2013-02-07 18:02:00,31.0,31.0,-100.00,SW,224,22.0,28.0,99,0.00,,,0.02,20.000000,,2013-02-07 23:02:00,
2013-02-07 18:32:00,32.0,32.0,-100.00,SW,224,19.0,27.0,100,0.00,,,0.02,8.000000,,2013-02-07 23:32:00,
2013-02-07 18:42:00,32.0,32.0,-100.00,SW,224,19.0,27.0,100,0.00,,,0.02,8.000000,,2013-02-07 23:42:00,
2013-02-07 18:52:00,32.0,32.0,-100.00,SW,224,19.0,27.0,100,0.00,,,0.02,8.000000,,2013-02-07 23:52:00,
2013-02-07 19:02:00,32.0,32.0,-100.00,SW,224,19.0,27.0,100,0.00,,,0.02,8.000000,,2013-02-08 00:02:00,
2013-02-07 19:32:00,32.0,32.0,-100.00,SW,219,20.0,27.0,100,0.00,,,0.02,0.000000,,2013-02-08 00:32:00,
2013-02-07 19:42:00,32.0,32.0,-100.00,SW,219,20.0,27.0,100,0.00,,,0.02,0.000000,,2013-02-08 00:42:00,
2013-02-07 19:52:00,32.0,32.0,-100.00,SW,219,20.0,27.0,100,0.00,,,0.02,0.000000,,2013-02-08 00:52:00,
2013-02-07 20:01:00,32.0,32.0,-100.00,SW,219,20.0,27.0,100,0.00,,,0.02,0.000000,,2013-02-08 01:01:00,
2013-02-07 21:22:00,32.0,32.0,-100.00,SW,220,21.0,29.0,100,-99.99,,,0.07,0.000000,,2013-02-08 02:22:00,
2013-02-07 21:32:00,32.0,32.0,-100.00,SW,220,21.0,29.0,100,-99.99,,,0.07,0.000000,,2013-02-08 02:32:00,
2013-02-07 21:42:00,32.0,32.0,-100.00,SW,220,21.0,29.0,100,-99.99,,,0.07,0.000000,,2013-02-08 02:42:00,
2013-02-07 21:52:00,32.0,32.0,-100.00,SW,220,21.0,29.0,100,-99.99,,,0.07,0.000000,,2013-02-08 02:52:00,
2013-02-07 22:02:00,32.0,32.0,-100.00,SW,220,21.0,29.0,100,-99.99,,,0.07,0.000000,,2013-02-08 03:02:00,
2013-02-07 22:23:00,32.0,32.0,-100.00,SW,220,21.0,30.0,100,0.02,,,0.09,0.000000,,2013-02-08 03:23:00,
2013-02-07 22:32:00,32.0,32.0,-100.00,SW,220,21.0,30.0,100,0.02,,,0.09,0.000000,,2013-02-08 03:32:00,
2013-02-07 22:42:00,32.0,32.0,-100.00,SW,220,21.0,30.0,100,0.02,,,0.09,0.000000,,2013-02-08 03:42:00,
2013-02-07 22:52:00,32.0,32.0,-100.00,SW,220,21.0,30.0,100,0.02,,,0.09,0.000000,,2013-02-08 03:52:00,
2013-02-07 23:02:00,32.0,32.0,-100.00,SW,220,21.0,30.0,100,0.02,,,0.09,0.000000,,2013-02-08 04:02:00,
2013-02-07 23:21:00,33.0,33.0,-100.00,SW,220,20.0,26.0,100,0.01,,,0.10,0.000000,,2013-02-08 04:21:00,
2013-02-07 23:32:00,33.0,33.0,-100.00,SW,220,20.0,26.0,100,0.01,,,0.10,0.000000,,2013-02-08 04:32:00,
2013-02-07 23:42:00,33.0,33.0,-100.00,SW,220,20.0,26.0,100,0.01,,,0.10,0.000000,,2013-02-08 04:42:00,
2013-02-07 23:52:00,33.0,33.0,-100.00,SW,220,20.0,26.0,100,0.01,,,0.10,0.000000,,2013-02-08 04:52:00,